• In Belarus
  • List of Countries
  • For 7 days
  • Water Temperature
  • Satellite Maps
  • Weather Map
  • Weather Widgets
  • user-avatar
    Login

    Hourly Weather Chumal'ovo

    Today, 17 December, Sunday

    Time Temperature Precipitation Wind Pressure Humidity
    00:00 +2°C° 0.1 mm 1 mps 726 mmHg 93%
    01:00 +2°C° 0.1 mm 1 mps 727 mmHg 94%
    02:00 +1°C° 0.1 mm 1 mps 727 mmHg 94%
    03:00 +1°C° 0 mm 1 mps 727 mmHg 93%
    04:00 +1°C° 0 mm 1 mps 727 mmHg 93%
    05:00 +1°C° 0 mm 1 mps 727 mmHg 92%
    06:00 0°C° 0 mm 1 mps 728 mmHg 92%
    07:00 0°C° 0 mm 1 mps 728 mmHg 91%
    08:00 0°C° 0 mm 1 mps 729 mmHg 90%
    09:00 +1°C° 0 mm 1 mps 729 mmHg 86%
    10:00 +2°C° 0 mm 1 mps 729 mmHg 82%
    11:00 +2°C° 0 mm 1 mps 730 mmHg 79%
    12:00 +3°C° 0 mm 1 mps 730 mmHg 77%
    13:00 +3°C° 0 mm 1 mps 730 mmHg 75%
    14:00 +3°C° 0 mm 1 mps 730 mmHg 73%
    15:00 +3°C° 0 mm 1 mps 730 mmHg 76%
    16:00 +2°C° 0 mm 1 mps 731 mmHg 80%
    17:00 +1°C° 0 mm 1 mps 731 mmHg 84%
    18:00 0°C° 0 mm 1 mps 731 mmHg 85%
    19:00 0°C° 0 mm 1 mps 732 mmHg 86%
    20:00 -1°C° 0 mm 1 mps 732 mmHg 86%
    21:00 -1°C° 0 mm 1 mps 732 mmHg 86%
    22:00 -1°C° 0 mm 1 mps 733 mmHg 86%
    23:00 -1°C° 0 mm 1 mps 733 mmHg 86%

    Tomorrow, 18 December, Monday

    Time Temperature Precipitation Wind Pressure Humidity
    00:00 -1°C° 0 mm 1 mps 733 mmHg 86%
    01:00 -2°C° 0 mm 0 mps 733 mmHg 86%
    02:00 -2°C° 0 mm 0 mps 734 mmHg 86%
    03:00 -2°C° 0.1 mm 0 mps 734 mmHg 87%
    04:00 -2°C° 0.1 mm 0 mps 734 mmHg 89%
    05:00 -2°C° 0.1 mm 0 mps 734 mmHg 90%
    06:00 -2°C° 0.2 mm 0 mps 734 mmHg 90%
    07:00 -1°C° 0.2 mm 1 mps 734 mmHg 91%
    08:00 -1°C° 0.2 mm 1 mps 734 mmHg 92%
    09:00 -1°C° 0.1 mm 1 mps 735 mmHg 90%
    10:00 0°C° 0.1 mm 1 mps 735 mmHg 87%
    11:00 0°C° 0.1 mm 1 mps 735 mmHg 85%
    12:00 0°C° 0.1 mm 1 mps 735 mmHg 83%
    13:00 +1°C° 0.1 mm 1 mps 735 mmHg 81%
    14:00 -1°C° 0.1 mm 2 mps 734 mmHg 80%
    15:00 0°C° 0.1 mm 1 mps 735 mmHg 82%
    16:00 0°C° 0.1 mm 1 mps 735 mmHg 85%
    17:00 -1°C° 0.1 mm 1 mps 735 mmHg 87%
    18:00 -1°C° 0.1 mm 1 mps 735 mmHg 88%
    19:00 -1°C° 0.1 mm 1 mps 736 mmHg 89%
    20:00 -1°C° 0.1 mm 1 mps 736 mmHg 89%
    21:00 -1°C° 0.2 mm 1 mps 736 mmHg 90%
    22:00 -1°C° 0.2 mm 1 mps 736 mmHg 91%
    23:00 -1°C° 0.2 mm 1 mps 737 mmHg 92%

    Day after tomorrow, 19 December, Tuesday

    Time Temperature Precipitation Wind Pressure Humidity
    00:00 -1°C° 0.4 mm 1 mps 737 mmHg 92%
    01:00 -1°C° 0.4 mm 1 mps 737 mmHg 93%
    02:00 -1°C° 0.4 mm 1 mps 737 mmHg 94%
    03:00 -1°C° 0.3 mm 1 mps 737 mmHg 94%
    04:00 0°C° 0.3 mm 1 mps 737 mmHg 94%
    05:00 0°C° 0.3 mm 1 mps 737 mmHg 94%
    06:00 0°C° 0.2 mm 1 mps 738 mmHg 95%
    07:00 0°C° 0.2 mm 1 mps 738 mmHg 95%
    08:00 -1°C° 0.2 mm 0 mps 738 mmHg 95%
    09:00 0°C° 0.1 mm 1 mps 739 mmHg 93%
    10:00 0°C° 0.1 mm 1 mps 739 mmHg 92%
    11:00 +1°C° 0.1 mm 1 mps 740 mmHg 90%
    12:00 +1°C° 0 mm 1 mps 740 mmHg 88%
    13:00 +1°C° 0 mm 1 mps 740 mmHg 86%
    14:00 +1°C° 0 mm 1 mps 740 mmHg 84%
    15:00 0°C° 0 mm 1 mps 740 mmHg 86%
    16:00 -1°C° 0 mm 1 mps 741 mmHg 88%
    17:00 -2°C° 0 mm 1 mps 741 mmHg 90%
    18:00 -2°C° 0 mm 1 mps 741 mmHg 89%
    19:00 -3°C° 0 mm 1 mps 742 mmHg 89%
    20:00 -3°C° 0 mm 1 mps 742 mmHg 88%
    21:00 -4°C° 0 mm 1 mps 742 mmHg 88%
    22:00 -4°C° 0 mm 1 mps 742 mmHg 87%
    23:00 -4°C° 0 mm 1 mps 742 mmHg 87%

    20 December, Wednesday

    Time Temperature Precipitation Wind Pressure Humidity
    00:00 -4°C° 0 mm 1 mps 742 mmHg 87%
    01:00 -6°C° 0 mm 1 mps 742 mmHg 86%
    02:00 -6°C° 0 mm 1 mps 742 mmHg 86%
    03:00 -6°C° 0 mm 1 mps 742 mmHg 85%
    04:00 -4°C° 0 mm 1 mps 742 mmHg 85%
    05:00 -5°C° 0 mm 0 mps 741 mmHg 84%
    06:00 -5°C° 0 mm 0 mps 741 mmHg 84%
    07:00 -5°C° 0 mm 0 mps 741 mmHg 84%
    08:00 -5°C° 0 mm 0 mps 741 mmHg 84%
    09:00 -3°C° 0 mm 1 mps 741 mmHg 83%
    10:00 -3°C° 0 mm 1 mps 741 mmHg 82%
    11:00 -2°C° 0 mm 1 mps 741 mmHg 82%
    12:00 -2°C° 0.1 mm 1 mps 741 mmHg 82%
    13:00 -1°C° 0.1 mm 1 mps 741 mmHg 83%
    14:00 -1°C° 0.1 mm 1 mps 740 mmHg 84%
    15:00 -1°C° 0.1 mm 1 mps 740 mmHg 86%
    16:00 -2°C° 0.1 mm 1 mps 740 mmHg 89%
    17:00 -2°C° 0.1 mm 1 mps 740 mmHg 92%
    18:00 -2°C° 0.1 mm 1 mps 741 mmHg 92%
    19:00 -2°C° 0.1 mm 1 mps 741 mmHg 93%
    20:00 -2°C° 0.1 mm 1 mps 741 mmHg 93%
    21:00 -2°C° 0 mm 1 mps 741 mmHg 93%
    22:00 -2°C° 0 mm 1 mps 741 mmHg 93%
    23:00 -2°C° 0 mm 1 mps 741 mmHg 93%

    21 December, Thursday

    Time Temperature Precipitation Wind Pressure Humidity
    00:00 -2°C° 0 mm 1 mps 741 mmHg 94%
    01:00 -2°C° 0 mm 1 mps 741 mmHg 94%
    02:00 -2°C° 0 mm 1 mps 741 mmHg 94%
    03:00 -2°C° 0 mm 1 mps 741 mmHg 94%
    04:00 -2°C° 0 mm 1 mps 741 mmHg 94%
    05:00 -2°C° 0 mm 1 mps 740 mmHg 94%
    06:00 -2°C° 0 mm 1 mps 740 mmHg 93%
    07:00 -2°C° 0 mm 1 mps 740 mmHg 93%
    08:00 -2°C° 0 mm 1 mps 740 mmHg 93%
    09:00 -2°C° 0.2 mm 1 mps 740 mmHg 92%
    10:00 -1°C° 0.2 mm 1 mps 740 mmHg 91%
    11:00 -1°C° 0.2 mm 1 mps 740 mmHg 90%
    12:00 -2°C° 0.5 mm 2 mps 739 mmHg 91%
    13:00 -2°C° 0.5 mm 2 mps 739 mmHg 91%
    14:00 -2°C° 0.5 mm 2 mps 738 mmHg 91%
    15:00 -2°C° 0.7 mm 2 mps 738 mmHg 93%
    16:00 0°C° 0.7 mm 1 mps 738 mmHg 94%
    17:00 0°C° 0.7 mm 1 mps 738 mmHg 95%
    18:00 0°C° 0.5 mm 1 mps 738 mmHg 95%
    19:00 0°C° 0.5 mm 1 mps 738 mmHg 95%
    20:00 0°C° 0.5 mm 1 mps 738 mmHg 96%
    21:00 0°C° 0.1 mm 1 mps 738 mmHg 96%
    22:00 0°C° 0.1 mm 1 mps 738 mmHg 96%
    23:00 0°C° 0.1 mm 1 mps 738 mmHg 96%

    22 December, Friday

    Time Temperature Precipitation Wind Pressure Humidity
    00:00 0°C° 0 mm 1 mps 738 mmHg 96%
    01:00 0°C° 0 mm 1 mps 738 mmHg 96%
    02:00 0°C° 0 mm 1 mps 738 mmHg 96%
    03:00 0°C° 0 mm 1 mps 738 mmHg 96%
    04:00 0°C° 0 mm 1 mps 738 mmHg 96%
    05:00 -1°C° 0 mm 1 mps 738 mmHg 96%
    06:00 -1°C° 0 mm 1 mps 738 mmHg 95%
    07:00 -1°C° 0 mm 1 mps 737 mmHg 95%
    08:00 -2°C° 0 mm 1 mps 737 mmHg 95%
    09:00 -1°C° 0 mm 1 mps 737 mmHg 95%
    10:00 0°C° 0 mm 1 mps 736 mmHg 94%
    11:00 +1°C° 0 mm 1 mps 736 mmHg 94%
    12:00 +1°C° 0 mm 1 mps 735 mmHg 94%
    13:00 +1°C° 0 mm 1 mps 734 mmHg 94%
    14:00 +1°C° 0 mm 2 mps 734 mmHg 94%
    Show more